Location: Lombard
(41.8800°N, 88.0080°W)
Time: 05:29:07
(UTC-05:00)

Vanguard 2 Rocket - Pass Details

Date: 23 February 2024
Orbit: 555 x 3307 km, 32.9° (Epoch: 12 April)

Event Time Altitude Azimuth Distance (km) Brightness Sun altitude
Rises 22:44:12 0° 273° (W) 7,095 11.7 -53.2°
Reaches altitude 10° 22:53:31 10° 250° (WSW) 6,257 11.2 -54.1°
Maximum altitude 23:00:19 13° 230° (SW) 5,973 10.9 -54.7°
Enters shadow 23:01:38 13° 226° (SW) 5,956 10.9 -54.9°
Drops below altitude 10° 23:06:57 10° 209° (SSW) 6,021 - -55.3°
Sets 23:15:40 0° 185° (S) 6,571 - -56.0°
